Time,TemperatureF,DewpointF,PressureIn,WindDirection,WindDirectionDegrees,WindSpeedMPH,WindSpeedGustMPH,Humidity,HourlyPrecipIn,Conditions,Clouds,dailyrainin,SoftwareType,DateUTC
2013-06-18 00:09:00,59.3,50.0,29.96,NNW,328,2.0,6.0,71,0.00,,,0.00,weatherlink.com 1.10,2013-06-18 07:09:00,
2013-06-18 00:24:00,58.8,50.0,29.96,NNW,330,1.0,7.0,72,0.00,,,0.00,weatherlink.com 1.10,2013-06-18 07:24:00,
2013-06-18 00:39:00,58.5,49.0,29.96,NW,321,0.0,5.0,71,0.00,,,0.00,weatherlink.com 1.10,2013-06-18 07:39:00,
2013-06-18 00:54:00,58.2,49.0,29.97,NNW,333,1.0,6.0,72,0.00,,,0.00,weatherlink.com 1.10,2013-06-18 07:54:00,
2013-06-18 01:09:00,57.8,49.0,29.97,WNW,285,0.0,5.0,72,0.00,,,0.00,weatherlink.com 1.10,2013-06-18 08:09:00,
2013-06-18 01:25:00,57.2,49.0,29.97,NNW,338,1.0,4.0,73,0.00,,,0.00,weatherlink.com 1.10,2013-06-18 08:25:00,
2013-06-18 01:40:00,56.7,48.0,29.97,South,169,0.0,4.0,73,0.00,,,0.00,weatherlink.com 1.10,2013-06-18 08:40:00,
2013-06-18 01:55:00,56.3,48.0,29.96,WNW,302,1.0,4.0,75,0.00,,,0.00,weatherlink.com 1.10,2013-06-18 08:55:00,
2013-06-18 02:10:00,56.2,48.0,29.96,NE,35,1.0,7.0,74,0.00,,,0.00,weatherlink.com 1.10,2013-06-18 09:10:00,
2013-06-18 02:25:00,56.1,48.0,29.96,NE,56,2.0,5.0,74,0.00,,,0.00,weatherlink.com 1.10,2013-06-18 09:25:00,
2013-06-18 02:40:00,55.8,48.0,29.97,NNE,32,2.0,5.0,74,0.00,,,0.00,weatherlink.com 1.10,2013-06-18 09:40:00,
2013-06-18 02:55:00,55.5,47.0,29.97,NW,324,1.0,5.0,74,0.00,,,0.00,weatherlink.com 1.10,2013-06-18 09:55:00,
2013-06-18 03:10:00,55.4,48.0,29.97,East,79,2.0,4.0,75,0.00,,,0.00,weatherlink.com 1.10,2013-06-18 10:10:00,
2013-06-18 03:25:00,55.1,48.0,29.97,North,6,1.0,3.0,77,0.00,,,0.00,weatherlink.com 1.10,2013-06-18 10:25:00,
2013-06-18 03:40:00,55.0,48.0,29.98,WNW,285,1.0,3.0,77,0.00,,,0.00,weatherlink.com 1.10,2013-06-18 10:40:00,
2013-06-18 03:55:00,54.9,48.0,29.97,ENE,63,1.0,4.0,77,0.00,,,0.00,weatherlink.com 1.10,2013-06-18 10:55:00,
2013-06-18 04:10:00,54.7,48.0,29.97,ENE,75,0.0,4.0,77,0.00,,,0.00,weatherlink.com 1.10,2013-06-18 11:10:00,
2013-06-18 04:25:00,54.7,48.0,29.98,WSW,242,1.0,4.0,78,0.00,,,0.00,weatherlink.com 1.10,2013-06-18 11:25:00,
2013-06-18 04:40:00,54.6,48.0,29.98,ENE,63,0.0,3.0,78,0.00,,,0.00,weatherlink.com 1.10,2013-06-18 11:40:00,
2013-06-18 04:55:00,54.1,48.0,29.98,ENE,70,1.0,3.0,80,0.00,,,0.00,weatherlink.com 1.10,2013-06-18 11:55:00,
2013-06-18 05:10:00,53.8,48.0,29.98,NNE,19,1.0,4.0,81,0.00,,,0.00,weatherlink.com 1.10,2013-06-18 12:10:00,
2013-06-18 05:25:00,53.9,48.0,29.98,North,352,1.0,2.0,80,0.00,,,0.00,weatherlink.com 1.10,2013-06-18 12:25:00,
2013-06-18 05:41:00,53.9,48.0,29.98,NE,51,0.0,2.0,81,0.00,,,0.00,weatherlink.com 1.10,2013-06-18 12:41:00,
2013-06-18 05:55:00,53.7,48.0,29.98,North,1,1.0,2.0,81,0.00,,,0.00,weatherlink.com 1.10,2013-06-18 12:55:00,
2013-06-18 06:10:00,53.8,48.0,29.98,North,11,0.0,2.0,81,0.00,,,0.00,weatherlink.com 1.10,2013-06-18 13:10:00,
2013-06-18 06:26:00,54.1,48.0,29.99,NNE,22,0.0,2.0,80,0.00,,,0.00,weatherlink.com 1.10,2013-06-18 13:26:00,
2013-06-18 06:40:00,54.3,48.0,29.99,ENE,63,0.0,5.0,80,0.00,,,0.00,weatherlink.com 1.10,2013-06-18 13:40:00,
2013-06-18 06:55:00,54.5,48.0,29.98,NNW,331,0.0,3.0,80,0.00,,,0.00,weatherlink.com 1.10,2013-06-18 13:55:00,
2013-06-18 07:10:00,54.2,49.0,29.98,NE,50,0.0,2.0,81,0.00,,,0.00,weatherlink.com 1.10,2013-06-18 14:10:00,
2013-06-18 07:27:00,54.1,48.0,29.99,ENE,61,1.0,3.0,81,0.00,,,0.00,weatherlink.com 1.10,2013-06-18 14:27:00,
2013-06-18 07:42:00,54.6,49.0,29.99,NE,51,1.0,6.0,80,0.00,,,0.00,weatherlink.com 1.10,2013-06-18 14:42:00,
2013-06-18 07:55:00,55.7,49.0,29.99,West,277,1.0,5.0,77,0.00,,,0.00,weatherlink.com 1.10,2013-06-18 14:55:00,
2013-06-18 08:10:00,56.1,48.0,29.99,NNW,340,0.0,3.0,75,0.00,,,0.00,weatherlink.com 1.10,2013-06-18 15:10:00,
2013-06-18 08:25:00,56.2,48.0,29.99,NNW,340,0.0,3.0,75,0.00,,,0.00,weatherlink.com 1.10,2013-06-18 15:25:00,
2013-06-18 08:40:00,56.8,48.0,29.98,NNE,15,0.0,3.0,72,0.00,,,0.00,weatherlink.com 1.10,2013-06-18 15:40:00,
2013-06-18 08:55:00,57.1,48.0,29.98,ESE,112,0.0,2.0,72,0.00,,,0.00,weatherlink.com 1.10,2013-06-18 15:55:00,
2013-06-18 09:10:00,57.3,48.0,29.98,NNE,13,0.0,4.0,72,0.00,,,0.00,weatherlink.com 1.10,2013-06-18 16:10:00,
2013-06-18 09:26:00,57.4,48.0,29.98,NE,49,1.0,2.0,72,0.00,,,0.00,weatherlink.com 1.10,2013-06-18 16:26:00,
2013-06-18 09:40:00,58.6,48.0,29.97,WNW,302,1.0,4.0,69,0.00,,,0.00,weatherlink.com 1.10,2013-06-18 16:40:00,
2013-06-18 09:55:00,58.6,48.0,29.97,ESE,105,2.0,3.0,67,0.00,,,0.00,weatherlink.com 1.10,2013-06-18 16:55:00,
2013-06-18 10:11:00,59.3,49.0,29.97,NNW,345,1.0,4.0,68,0.00,,,0.00,weatherlink.com 1.10,2013-06-18 17:11:00,
2013-06-18 10:41:00,60.7,48.0,29.96,NNW,329,0.0,6.0,63,0.00,,,0.00,weatherlink.com 1.10,2013-06-18 17:41:00,
2013-06-18 10:57:00,61.0,47.0,29.96,WSW,242,0.0,3.0,61,0.00,,,0.00,weatherlink.com 1.10,2013-06-18 17:57:00,
2013-06-18 11:11:00,61.6,47.0,29.96,WSW,237,2.0,4.0,59,0.00,,,0.00,weatherlink.com 1.10,2013-06-18 18:11:00,
2013-06-18 11:26:00,63.8,48.0,29.95,NNW,345,1.0,4.0,56,0.00,,,0.00,weatherlink.com 1.10,2013-06-18 18:26:00,
2013-06-18 11:41:00,63.9,47.0,29.94,West,277,1.0,4.0,55,0.00,,,0.00,weatherlink.com 1.10,2013-06-18 18:41:00,
2013-06-18 11:56:00,64.2,47.0,29.95,East,88,0.0,4.0,53,0.00,,,0.00,weatherlink.com 1.10,2013-06-18 18:56:00,
2013-06-18 12:11:00,65.6,47.0,29.95,NNE,27,0.0,4.0,52,0.00,,,0.00,weatherlink.com 1.10,2013-06-18 19:11:00,
2013-06-18 12:26:00,64.5,46.0,29.94,NE,35,4.0,4.0,52,0.00,,,0.00,weatherlink.com 1.10,2013-06-18 19:26:00,
2013-06-18 12:42:00,65.2,47.0,29.93,NE,44,2.0,4.0,52,0.00,,,0.00,weatherlink.com 1.10,2013-06-18 19:42:00,
2013-06-18 12:56:00,66.2,46.0,29.93,West,277,1.0,2.0,49,0.00,,,0.00,weatherlink.com 1.10,2013-06-18 19:56:00,
2013-06-18 13:11:00,66.4,46.0,29.93,North,11,0.0,4.0,48,0.00,,,0.00,weatherlink.com 1.10,2013-06-18 20:11:00,
2013-06-18 13:26:00,66.9,45.0,29.92,North,350,2.0,6.0,46,0.00,,,0.00,weatherlink.com 1.10,2013-06-18 20:26:00,
2013-06-18 13:41:00,69.8,46.0,29.92,WNW,288,2.0,5.0,42,0.00,,,0.00,weatherlink.com 1.10,2013-06-18 20:41:00,
2013-06-18 13:56:00,70.5,44.0,29.91,ENE,65,0.0,4.0,39,0.00,,,0.00,weatherlink.com 1.10,2013-06-18 20:56:00,
2013-06-18 14:11:00,68.2,43.0,29.91,NNE,18,3.0,8.0,41,0.00,,,0.00,weatherlink.com 1.10,2013-06-18 21:11:00,
2013-06-18 14:26:00,66.3,43.0,29.91,WSW,255,1.0,5.0,43,0.00,,,0.00,weatherlink.com 1.10,2013-06-18 21:26:00,
2013-06-18 14:41:00,66.0,41.0,29.91,West,280,1.0,6.0,40,0.00,,,0.00,weatherlink.com 1.10,2013-06-18 21:41:00,
2013-06-18 14:57:00,66.8,43.0,29.91,ENE,64,2.0,4.0,42,0.00,,,0.00,weatherlink.com 1.10,2013-06-18 21:57:00,
2013-06-18 15:12:00,70.1,43.0,29.90,WNW,295,1.0,6.0,38,0.00,,,0.00,weatherlink.com 1.10,2013-06-18 22:12:00,
2013-06-18 15:27:00,71.1,43.0,29.90,NE,36,2.0,4.0,36,0.00,,,0.00,weatherlink.com 1.10,2013-06-18 22:27:00,
2013-06-18 15:42:00,70.7,42.0,29.89,SSW,192,1.0,5.0,36,0.00,,,0.00,weatherlink.com 1.10,2013-06-18 22:42:00,
2013-06-18 15:58:00,71.7,42.0,29.89,WNW,302,1.0,5.0,34,0.00,,,0.00,weatherlink.com 1.10,2013-06-18 22:58:00,
2013-06-18 16:12:00,70.2,42.0,29.89,WSW,240,2.0,6.0,36,0.00,,,0.00,weatherlink.com 1.10,2013-06-18 23:12:00,
2013-06-18 16:27:00,70.2,42.0,29.89,WNW,283,1.0,6.0,36,0.00,,,0.00,weatherlink.com 1.10,2013-06-18 23:27:00,
2013-06-18 16:42:00,69.0,41.0,29.89,NE,47,1.0,6.0,36,0.00,,,0.00,weatherlink.com 1.10,2013-06-18 23:42:00,
2013-06-18 16:57:00,70.4,42.0,29.88,North,352,1.0,7.0,36,0.00,,,0.00,weatherlink.com 1.10,2013-06-18 23:57:00,
2013-06-18 17:12:00,70.0,41.0,29.88,ENE,77,1.0,6.0,35,0.00,,,0.00,weatherlink.com 1.10,2013-06-19 00:12:00,
2013-06-18 17:27:00,70.2,42.0,29.88,NNW,331,1.0,5.0,36,0.00,,,0.00,weatherlink.com 1.10,2013-06-19 00:27:00,
2013-06-18 17:42:00,70.1,41.0,29.89,NW,308,3.0,5.0,35,0.00,,,0.00,weatherlink.com 1.10,2013-06-19 00:42:00,
2013-06-18 17:57:00,69.1,42.0,29.88,ENE,63,2.0,5.0,37,0.00,,,0.00,weatherlink.com 1.10,2013-06-19 00:57:00,
2013-06-18 18:13:00,67.1,41.0,29.88,NW,306,2.0,8.0,38,0.00,,,0.00,weatherlink.com 1.10,2013-06-19 01:13:00,
2013-06-18 18:27:00,65.1,45.0,29.89,NW,319,3.0,7.0,48,0.00,,,0.00,weatherlink.com 1.10,2013-06-19 01:27:00,
2013-06-18 18:42:00,62.7,45.0,29.88,NE,37,4.0,6.0,52,0.00,,,0.00,weatherlink.com 1.10,2013-06-19 01:42:00,
2013-06-18 18:57:00,61.1,45.0,29.89,NE,53,1.0,7.0,56,0.00,,,0.00,weatherlink.com 1.10,2013-06-19 01:57:00,
2013-06-18 19:12:00,61.0,45.0,29.89,NW,319,1.0,8.0,57,0.00,,,0.00,weatherlink.com 1.10,2013-06-19 02:12:00,
2013-06-18 19:27:00,61.3,44.0,29.90,South,191,1.0,8.0,53,0.00,,,0.00,weatherlink.com 1.10,2013-06-19 02:27:00,
2013-06-18 19:42:00,61.3,44.0,29.89,NW,309,1.0,6.0,54,0.00,,,0.00,weatherlink.com 1.10,2013-06-19 02:42:00,
2013-06-18 19:58:00,60.8,44.0,29.89,WSW,246,1.0,6.0,55,0.00,,,0.00,weatherlink.com 1.10,2013-06-19 02:58:00,
2013-06-18 20:12:00,60.1,44.0,29.89,NNW,330,4.0,8.0,55,0.00,,,0.00,weatherlink.com 1.10,2013-06-19 03:12:00,
2013-06-18 20:27:00,59.5,44.0,29.90,WNW,302,2.0,7.0,56,0.00,,,0.00,weatherlink.com 1.10,2013-06-19 03:27:00,
2013-06-18 20:43:00,58.9,44.0,29.91,SSE,157,1.0,9.0,58,0.00,,,0.00,weatherlink.com 1.10,2013-06-19 03:43:00,
2013-06-18 20:57:00,58.2,45.0,29.91,SSW,195,1.0,4.0,61,0.00,,,0.00,weatherlink.com 1.10,2013-06-19 03:57:00,
2013-06-18 21:12:00,57.6,45.0,29.91,North,354,0.0,7.0,63,0.00,,,0.00,weatherlink.com 1.10,2013-06-19 04:12:00,
2013-06-18 21:27:00,57.0,45.0,29.91,NW,305,0.0,2.0,64,0.00,,,0.00,weatherlink.com 1.10,2013-06-19 04:27:00,
2013-06-18 21:42:00,56.8,44.0,29.91,SW,232,2.0,5.0,63,0.00,,,0.00,weatherlink.com 1.10,2013-06-19 04:42:00,
2013-06-18 21:57:00,56.4,43.0,29.92,NNW,336,1.0,4.0,62,0.00,,,0.00,weatherlink.com 1.10,2013-06-19 04:57:00,
2013-06-18 22:12:00,55.7,44.0,29.92,ENE,74,0.0,6.0,66,0.00,,,0.00,weatherlink.com 1.10,2013-06-19 05:12:00,
2013-06-18 22:27:00,55.2,44.0,29.93,NNW,329,2.0,3.0,67,0.00,,,0.00,weatherlink.com 1.10,2013-06-19 05:27:00,
2013-06-18 22:42:00,55.0,45.0,29.93,SW,229,2.0,4.0,68,0.00,,,0.00,weatherlink.com 1.10,2013-06-19 05:42:00,
2013-06-18 22:57:00,55.0,44.0,29.93,NW,323,2.0,4.0,67,0.00,,,0.00,weatherlink.com 1.10,2013-06-19 05:57:00,
2013-06-18 23:12:00,54.9,44.0,29.93,ENE,63,1.0,5.0,68,0.00,,,0.00,weatherlink.com 1.10,2013-06-19 06:12:00,
2013-06-18 23:27:00,54.3,45.0,29.94,North,349,1.0,2.0,70,0.00,,,0.00,weatherlink.com 1.10,2013-06-19 06:27:00,
2013-06-18 23:42:00,53.8,46.0,29.93,NE,56,1.0,2.0,74,0.00,,,0.00,weatherlink.com 1.10,2013-06-19 06:42:00,
2013-06-18 23:57:00,53.2,45.0,29.94,East,86,0.0,3.0,75,0.00,,,0.00,weatherlink.com 1.10,2013-06-19 06:57:00,